Location: Killam
(52.7910°N, 111.8608°W)
Time: 22:21:11
(UTC+00:00)

Vanguard 3 - Pass Details

Date: 23 February 2026
Orbit: 507 x 3205 km, 33.4° (Epoch: 11 March)

Event Time Altitude Azimuth Distance (km) Brightness Sun altitude
Rises 21:32:56 0° 222° (SW) 6,623 13.2 23.2°
Reaches altitude 10° 21:39:16 10° 209° (SSW) 5,169 13.4 22.7°
Maximum altitude 21:48:23 21° 170° (S) 3,540 11.3 21.9°
Drops below altitude 10° 21:55:01 10° 126° (SE) 3,614 10.5 21.4°
Sets 21:58:24 0° 110° (ESE) 4,193 10.6 21.1°
